When you browse on this site, cookies collect data to enhance your experience and personalize the content and advertising you see.
Visit our Privacy Policy to learn more. By continuing to use the site, you agree to this use of cookies and data.
  • en France
  • Liste des pays
  • À 7 jours
  • Température de l'eau
  • Carte satellitaire
  • Carte météo
  • Widgets météo
  • user-avatar
    Se connecter

    Météo par heure à Ajaccio

    Ce jour, 25 Mai, Samedi

    Heure Température Précipitation Vent Pression Humidité
    00:00 +16°C° 0 mm 2 m/s 746 mmHg 73%
    01:00 +16°C° 0 mm 2 m/s 746 mmHg 73%
    02:00 +16°C° 0 mm 2 m/s 746 mmHg 71%
    03:00 +16°C° 0 mm 2 m/s 746 mmHg 68%
    04:00 +16°C° 0 mm 2 m/s 746 mmHg 66%
    05:00 +17°C° 0 mm 2 m/s 746 mmHg 62%
    06:00 +18°C° 0 mm 2 m/s 746 mmHg 58%
    07:00 +19°C° 0 mm 2 m/s 746 mmHg 57%
    08:00 +21°C° 0 mm 2 m/s 746 mmHg 51%
    09:00 +24°C° 0 mm 1 m/s 747 mmHg 45%
    10:00 +26°C° 0 mm 1 m/s 747 mmHg 40%
    11:00 +26°C° 0 mm 2 m/s 747 mmHg 40%
    12:00 +26°C° 0 mm 2 m/s 747 mmHg 40%
    13:00 +26°C° 0 mm 2 m/s 747 mmHg 41%
    14:00 +26°C° 0 mm 2 m/s 746 mmHg 43%
    15:00 +25°C° 0 mm 2 m/s 746 mmHg 45%
    16:00 +25°C° 0 mm 2 m/s 746 mmHg 48%
    17:00 +23°C° 0 mm 2 m/s 746 mmHg 54%
    18:00 +22°C° 0 mm 1 m/s 746 mmHg 61%
    19:00 +21°C° 0 mm 1 m/s 746 mmHg 68%
    20:00 +20°C° 0 mm 1 m/s 746 mmHg 72%
    21:00 +19°C° 0 mm 1 m/s 746 mmHg 75%
    22:00 +17°C° 0 mm 2 m/s 747 mmHg 79%
    23:00 +17°C° 0 mm 2 m/s 746 mmHg 79%

    Demain, 26 Mai, Dimanche

    Heure Température Précipitation Vent Pression Humidité
    00:00 +16°C° 0 mm 2 m/s 746 mmHg 79%
    01:00 +16°C° 0 mm 2 m/s 746 mmHg 79%
    02:00 +16°C° 0 mm 2 m/s 745 mmHg 78%
    03:00 +16°C° 0 mm 2 m/s 745 mmHg 77%
    04:00 +15°C° 0 mm 2 m/s 745 mmHg 76%
    05:00 +16°C° 0 mm 1 m/s 745 mmHg 73%
    06:00 +18°C° 0 mm 1 m/s 745 mmHg 70%
    07:00 +19°C° 0 mm 1 m/s 745 mmHg 67%
    08:00 +20°C° 0 mm 1 m/s 745 mmHg 63%
    09:00 +21°C° 0 mm 2 m/s 745 mmHg 59%
    10:00 +22°C° 0 mm 3 m/s 745 mmHg 56%
    11:00 +21°C° 0.2 mm 2 m/s 745 mmHg 62%
    12:00 +20°C° 0.2 mm 2 m/s 745 mmHg 68%
    13:00 +20°C° 0.2 mm 2 m/s 745 mmHg 74%
    14:00 +19°C° 0.8 mm 2 m/s 745 mmHg 76%
    15:00 +19°C° 0.8 mm 2 m/s 745 mmHg 79%
    16:00 +18°C° 0.8 mm 2 m/s 744 mmHg 82%
    17:00 +18°C° 0.3 mm 2 m/s 744 mmHg 84%
    18:00 +18°C° 0.3 mm 2 m/s 744 mmHg 86%
    19:00 +17°C° 0.3 mm 2 m/s 744 mmHg 87%
    20:00 +18°C° 0.4 mm 1 m/s 744 mmHg 88%
    21:00 +16°C° 0.4 mm 1 m/s 744 mmHg 89%
    22:00 +16°C° 0.4 mm 1 m/s 744 mmHg 90%
    23:00 +16°C° 1.5 mm 1 m/s 744 mmHg 91%

    Après-demain, 27 Mai, Lundi

    Heure Température Précipitation Vent Pression Humidité
    00:00 +16°C° 1.5 mm 1 m/s 744 mmHg 92%
    01:00 +15°C° 1.5 mm 1 m/s 743 mmHg 92%
    02:00 +15°C° 0.9 mm 1 m/s 743 mmHg 92%
    03:00 +15°C° 0.9 mm 1 m/s 743 mmHg 92%
    04:00 +15°C° 0.9 mm 1 m/s 742 mmHg 92%
    05:00 +16°C° 0.2 mm 1 m/s 742 mmHg 91%
    06:00 +16°C° 0.2 mm 1 m/s 742 mmHg 89%
    07:00 +16°C° 0.2 mm 1 m/s 742 mmHg 88%
    08:00 +19°C° 0 mm 1 m/s 742 mmHg 81%
    09:00 +19°C° 0 mm 2 m/s 742 mmHg 74%
    10:00 +21°C° 0 mm 3 m/s 742 mmHg 67%
    11:00 +21°C° 0.5 mm 2 m/s 742 mmHg 70%
    12:00 +20°C° 0.5 mm 2 m/s 742 mmHg 73%
    13:00 +20°C° 0.5 mm 2 m/s 742 mmHg 75%
    14:00 +19°C° 1.7 mm 2 m/s 742 mmHg 80%
    15:00 +18°C° 1.7 mm 2 m/s 742 mmHg 85%
    16:00 +18°C° 1.7 mm 2 m/s 742 mmHg 89%
    17:00 +17°C° 0.9 mm 2 m/s 742 mmHg 91%
    18:00 +17°C° 0.9 mm 2 m/s 742 mmHg 92%
    19:00 +17°C° 0.9 mm 2 m/s 742 mmHg 93%
    20:00 +16°C° 0.4 mm 2 m/s 742 mmHg 93%
    21:00 +16°C° 0.4 mm 2 m/s 742 mmHg 94%
    22:00 +16°C° 0.4 mm 2 m/s 742 mmHg 95%
    23:00 +16°C° 0.9 mm 2 m/s 742 mmHg 95%

    28 Mai, Mardi

    Heure Température Précipitation Vent Pression Humidité
    00:00 +16°C° 0.9 mm 2 m/s 742 mmHg 95%
    01:00 +16°C° 0.9 mm 2 m/s 742 mmHg 95%
    02:00 +16°C° 0.6 mm 2 m/s 742 mmHg 95%
    03:00 +16°C° 0.6 mm 2 m/s 741 mmHg 95%
    04:00 +15°C° 0.6 mm 1 m/s 741 mmHg 95%
    05:00 +16°C° 0.1 mm 1 m/s 741 mmHg 93%
    06:00 +16°C° 0.1 mm 1 m/s 741 mmHg 92%
    07:00 +18°C° 0.1 mm 1 m/s 741 mmHg 90%
    08:00 +19°C° 0 mm 1 m/s 742 mmHg 83%
    09:00 +19°C° 0 mm 2 m/s 742 mmHg 75%
    10:00 +20°C° 0 mm 2 m/s 742 mmHg 67%
    11:00 +20°C° 0 mm 3 m/s 742 mmHg 68%
    12:00 +21°C° 0 mm 3 m/s 742 mmHg 69%
    13:00 +21°C° 0 mm 4 m/s 742 mmHg 69%
    14:00 +21°C° 0 mm 4 m/s 742 mmHg 66%
    15:00 +20°C° 0 mm 4 m/s 742 mmHg 64%
    16:00 +20°C° 0 mm 4 m/s 741 mmHg 61%
    17:00 +19°C° 0 mm 4 m/s 741 mmHg 65%
    18:00 +18°C° 0 mm 4 m/s 741 mmHg 70%
    19:00 +17°C° 0 mm 4 m/s 741 mmHg 74%
    20:00 +17°C° 0 mm 4 m/s 741 mmHg 78%
    21:00 +16°C° 0 mm 3 m/s 741 mmHg 81%
    22:00 +16°C° 0 mm 3 m/s 741 mmHg 84%
    23:00 +15°C° 0 mm 4 m/s 741 mmHg 79%

    29 Mai, Mercredi

    Heure Température Précipitation Vent Pression Humidité
    00:00 +15°C° 0 mm 6 m/s 741 mmHg 74%
    01:00 +15°C° 0 mm 7 m/s 741 mmHg 68%
    02:00 +15°C° 0 mm 7 m/s 741 mmHg 72%
    03:00 +14°C° 0 mm 6 m/s 741 mmHg 75%
    04:00 +14°C° 0 mm 6 m/s 741 mmHg 78%
    05:00 +14°C° 0 mm 6 m/s 742 mmHg 75%
    06:00 +15°C° 0 mm 5 m/s 742 mmHg 71%
    07:00 +16°C° 0 mm 5 m/s 743 mmHg 68%
    08:00 +16°C° 0 mm 5 m/s 743 mmHg 64%
    09:00 +17°C° 0 mm 5 m/s 743 mmHg 59%
    10:00 +19°C° 0 mm 5 m/s 744 mmHg 55%
    11:00 +20°C° 0 mm 5 m/s 744 mmHg 54%
    12:00 +20°C° 0 mm 4 m/s 744 mmHg 54%
    13:00 +20°C° 0 mm 4 m/s 745 mmHg 53%
    14:00 +20°C° 0.1 mm 4 m/s 745 mmHg 55%
    15:00 +20°C° 0.1 mm 3 m/s 745 mmHg 57%
    16:00 +20°C° 0.1 mm 3 m/s 745 mmHg 59%
    17:00 +19°C° 0 mm 2 m/s 745 mmHg 62%
    18:00 +19°C° 0 mm 2 m/s 746 mmHg 66%
    19:00 +19°C° 0 mm 1 m/s 746 mmHg 69%
    20:00 +17°C° 0 mm 2 m/s 747 mmHg 70%
    21:00 +16°C° 0 mm 2 m/s 747 mmHg 71%
    22:00 +15°C° 0 mm 2 m/s 748 mmHg 71%
    23:00 +15°C° 0 mm 2 m/s 748 mmHg 70%

    30 Mai, Jeudi

    Heure Température Précipitation Vent Pression Humidité
    00:00 +14°C° 0 mm 2 m/s 748 mmHg 69%
    01:00 +14°C° 0 mm 2 m/s 748 mmHg 67%
    02:00 +14°C° 0 mm 2 m/s 749 mmHg 68%
    03:00 +14°C° 0 mm 2 m/s 749 mmHg 68%
    04:00 +14°C° 0 mm 2 m/s 749 mmHg 68%
    05:00 +15°C° 0 mm 2 m/s 750 mmHg 67%
    06:00 +17°C° 0 mm 2 m/s 750 mmHg 66%
    07:00 +19°C° 0 mm 1 m/s 751 mmHg 64%
    08:00 +19°C° 0 mm 2 m/s 751 mmHg 59%
    09:00 +21°C° 0 mm 2 m/s 751 mmHg 53%
    10:00 +22°C° 0 mm 3 m/s 752 mmHg 48%
    11:00 +22°C° 0 mm 3 m/s 752 mmHg 49%
    12:00 +22°C° 0 mm 3 m/s 752 mmHg 49%
    13:00 +22°C° 0 mm 3 m/s 752 mmHg 50%
    14:00 +22°C° 0 mm 3 m/s 752 mmHg 51%
    15:00 +22°C° 0 mm 3 m/s 752 mmHg 53%
    16:00 +22°C° 0 mm 3 m/s 752 mmHg 54%
    17:00 +21°C° 0 mm 2 m/s 752 mmHg 59%
    18:00 +20°C° 0 mm 2 m/s 752 mmHg 64%
    19:00 +20°C° 0 mm 1 m/s 752 mmHg 69%
    20:00 +19°C° 0 mm 1 m/s 752 mmHg 71%
    21:00 +18°C° 0 mm 1 m/s 753 mmHg 74%
    22:00 +16°C° 0 mm 1 m/s 753 mmHg 76%
    23:00 +16°C° 0 mm 1 m/s 753 mmHg 75%
    Voir plus